Location: Shenandoah County Park
(38.9356°N, 78.4524°W)
Time: 12:51:31
(UTC-05:00)

Envisat - Pass Details

Date: 01 December 2021
Orbit: 764 x 766 km, 98.2° (Epoch: 23 January)

Event Time Altitude Azimuth Distance (km) Brightness Sun altitude
Rises 04:06:47 0° 30° (NNE) 3,239 6.6 -35.8°
Reaches altitude 10° 04:09:45 10° 48° (NE) 2,307 5.9 -35.2°
Maximum altitude 04:13:20 19° 93° (E) 1,756 5.5 -34.5°
Drops below altitude 10° 04:16:53 10° 138° (SE) 2,295 5.9 -33.8°
Sets 04:19:49 0° 155° (SSE) 3,215 6.5 -33.2°
